Orbital Elements at Epoch 2459000.5 (2020-May-31.0) TDB
Reference: JPL 18 (heliocentric ecliptic J2000)
Element | Value | Uncertainty (1-sigma) | Units |
e | .02966347022540397 | 4.9609e-08 | |
a | 3.113341971130705 | 3.7864e-08 | au |
q | 3.020989444268569 | 1.5453e-07 | au |
i | 11.86036051292736 | 5.8255e-06 | deg |
node | 143.0177397544071 | 2.6701e-05 | deg |
peri | 87.59171702182164 | 0.00010732 | deg |
M | 332.0589297625058 | 0.00010188 | deg |
tp | 2459156.232481119587 (2020-Nov-02.73248112) | 0.00056757 | TDB |
period | 2006.49770128774 5.49 | 3.6604e-05 1.002e-07 | d yr |
n | .1794171006370739 | 3.273e-09 | deg/d |
Q | 3.205694497992841 | 3.8987e-08 | au |
|
| | Orbit Determination Parameters
Additional Information
|